AirNav   Bose Proflight or Bose A20?
 
 291 users online  

C53 Lower Loon Creek Airport
Challis, Idaho, USA

GOING TO CHALLIS?


FAA INFORMATION EFFECTIVE 23 MAY 2019

Location

FAA Identifier: C53
Lat/Long: 44-48-31.2163N / 114-48-31.1756W
44-48.520272N / 114-48.519593W
44.8086712 / -114.8086599
(estimated)
Elevation: 4200 ft. / 1280 m (estimated)
Variation: 17E (1990)
From city: 30 miles SW of CHALLIS, ID
Time zone: UTC -6 (UTC -7 during Standard Time)
Zip code: 83469

Airport Operations

Airport use: Open to the public
Activation date: 11/1992
Control tower: no
ARTCC: SALT LAKE CITY CENTER
FSS: BOISE FLIGHT SERVICE STATION
NOTAMs facility: BOI (NOTAM-D service available)
Attendance: UNATNDD
Wind indicator: yes
Segmented circle: no

Airport Communications

CTAF: 122.9

Nearby radio navigation aids

VOR radial/distance  VOR name  Freq  Var
LKTr234/33.3SALMON VOR/DME113.5013E

Airport Services

Parking: tiedowns
Airframe service: NONE
Powerplant service: NONE
Bottled oxygen: NONE
Bulk oxygen: NONE

Runway Information

Runway 16/34

Dimensions: 1200 x 25 ft. / 366 x 8 m
Surface: turf/dirt, in fair condition
RUNWAY 16  RUNWAY 34
Latitude: 44-48.618877N44-48.421667N
Longitude: 114-48.526852W114-48.512333W
Elevation: 4084.0 ft.4098.0 ft.
Traffic pattern: leftleft
Obstructions: 4 ft. fence, 75 ft. left of centerline40 ft. brush, 50 ft. from runway, 75 ft. right of centerline, 1:1 slope to clear

Airport Ownership and Management from official FAA records

Ownership: Publicly-owned
Owner: IDAHO DEPT OF FISH AND GAME
600 S. WALNUT
BOISE, ID 83707
Phone 208-334-3771
Manager: TOM CURET
PO BOX 25
BOISE, ID 83707
Phone 208-756-2271

Airport Operational Statistics

Aircraft operations: avg 38/month *
56% air taxi
44% transient general aviation
* for 12-month period ending 31 May 2017

Additional Remarks

ARPT LCTD ON A PLATEAU 50 FT TO 75 FT ABOVE THE RIVER.
RY NOT MARKED.
RECOMMEND LAND RY 16; DEPART RY 34 WHEN WIND CONDITIONS ALLOW.
NO WINTER MAINT.
STOCK AND BIG GAME ANIMALS INVOF RY.
RODENT ACTIVITY ADJACENT BOTH SIDES OF RY.
LCTD IN NARROW WINDING RIVER CANYON.

Instrument Procedures

There are no published instrument procedures at C53.

Some nearby airports with instrument procedures:

KSMN - Lemhi County Airport (44 nm NE)
KMYL - Mc Call Municipal Airport (55 nm W)
KSUN - Friedman Memorial Airport (81 nm S)
KGIC - Idaho County Airport (88 nm NW)
6S5 - Ravalli County Airport (91 nm N)
 
Loc | Ops | Rwys | IFR | FBO | Links
Com | Nav | Svcs | Stats | Notes
Area around C53 (Lower Loon Creek Airport)
 
Road maps at: MapQuest Bing Google
 
Aerial photo
WARNING: Photo may not be current or correct
Aerial photo of C53 (Lower Loon Creek Airport)
Photo taken 05-Jul-2008

Do you have a better or more recent aerial photo of Lower Loon Creek Airport that you would like to share? If so, please send us your photo.

 
Sectional chart

 
Airport distance calculator
Flying to Lower Loon Creek Airport? Find the distance to fly.

From to C53

Sunrise and sunset
Times for 17-Jun-2019
 Local
(UTC-6)
 Zulu
(UTC)
Morning civil twilight05:1611:16
Sunrise05:5411:54
Sunset21:2703:27
Evening civil twilight22:0404:04

Current date and time
Zulu (UTC)  17-Jun-2019 08:45:34
Local (UTC-6)  17-Jun-2019 02:45:34
 
METAR
KLLJ 
31nm SE 
170755Z AUTO 31006KT 10SM BKN070 OVC090 15/12 A3006 RMK AO2 LTG DSNT S RAE54 SLP111 P0001 T01500117
KSNT 
39nm S 
170748Z AUTO 19003KT 08/06 A3012 RMK AO1 SLP110 T00830056
KSMN 
44nm NE 
170756Z AUTO 00000KT 10SM FEW070 16/12 A3003 RMK AO2 SLP139 T01560117
TAF
KSMN 
44nm NE 
170520Z 1706/1806 18005KT P6SM VCSH BKN080 FM170800 VRB03KT P6SM SCT100 FM172200 01008KT P6SM VCTS BKN070CB FM180200 01005KT P6SM SCT070
NOTAMs
Click for the latest NOTAMs
NOTAMs are issued by the DoD/FAA and will open in a separate window not controlled by AirNav.

 

 
 

Would you like to see your business listed on this page?

 If your business provides an interesting product or service to pilots, flight crews, aircraft, or users of the Lower Loon Creek Airport, you should consider listing it here.  To start the listing process, click on the button below
 
Add a business
 

Other Pages about Lower Loon Creek Airport

www.flyidaho.org/...
 
Update a link
 
Copyright © AirNav, LLC. All rights reserved. Privacy Policy  Contact